Time,TemperatureF,DewpointF,PressureIn,WindDirection,WindDirectionDegrees,WindSpeedMPH,WindSpeedGustMPH,Humidity,HourlyPrecipIn,Conditions,Clouds,dailyrainin,SoftwareType,DateUTC
2013-03-27 00:02:00,28.6,22.3,-100.00,WNW,296,0.0,0.0,77,0.00,,,0.00,meteohub,2013-03-27 05:02:00,
2013-03-27 00:07:00,28.4,22.1,-100.00,WNW,296,0.0,0.0,77,0.00,,,0.00,meteohub,2013-03-27 05:07:00,
2013-03-27 00:12:00,28.6,22.3,-100.00,WNW,296,0.0,0.0,77,0.00,,,0.00,meteohub,2013-03-27 05:12:00,
2013-03-27 00:17:00,28.6,22.3,-100.00,WNW,296,0.0,0.0,77,0.00,,,0.00,meteohub,2013-03-27 05:17:00,
2013-03-27 00:22:00,28.8,22.5,-100.00,WNW,296,0.0,0.0,77,0.00,,,0.00,meteohub,2013-03-27 05:22:00,
2013-03-27 00:27:00,28.8,22.5,-100.00,WNW,296,0.0,1.0,77,0.00,,,0.00,meteohub,2013-03-27 05:27:00,
2013-03-27 00:35:00,28.6,22.3,-100.00,WNW,296,0.0,1.0,77,0.00,,,0.00,meteohub,2013-03-27 05:35:00,
2013-03-27 00:40:00,28.2,22.3,-100.00,WNW,296,0.0,0.0,78,0.00,,,0.00,meteohub,2013-03-27 05:40:00,
2013-03-27 00:45:00,28.0,22.1,-100.00,WNW,291,0.0,0.0,78,0.00,,,0.00,meteohub,2013-03-27 05:45:00,
2013-03-27 00:50:00,28.2,22.3,-100.00,WNW,291,0.0,0.0,78,0.00,,,0.00,meteohub,2013-03-27 05:50:00,
2013-03-27 00:58:00,28.2,22.3,-100.00,WNW,291,0.0,0.0,78,0.00,,,0.00,meteohub,2013-03-27 05:58:00,
2013-03-27 01:03:00,28.2,22.3,-100.00,WNW,291,0.0,0.0,78,0.00,,,0.00,meteohub,2013-03-27 06:03:00,
2013-03-27 01:08:00,28.0,22.1,-100.00,WNW,291,0.0,0.0,78,0.00,,,0.00,meteohub,2013-03-27 06:08:00,
2013-03-27 01:13:00,27.9,21.9,-100.00,WNW,291,0.0,0.0,78,0.00,,,0.00,meteohub,2013-03-27 06:13:00,
2013-03-27 01:21:00,27.9,21.9,-100.00,WNW,291,0.0,0.0,78,0.00,,,0.00,meteohub,2013-03-27 06:21:00,
2013-03-27 01:27:00,27.7,21.7,-100.00,WNW,291,0.0,0.0,78,0.00,,,0.00,meteohub,2013-03-27 06:27:00,
2013-03-27 01:32:00,27.3,21.4,-100.00,WNW,291,0.0,0.0,78,0.00,,,0.00,meteohub,2013-03-27 06:32:00,
2013-03-27 01:37:00,27.1,21.2,-100.00,WNW,291,0.0,0.0,78,0.00,,,0.00,meteohub,2013-03-27 06:37:00,
2013-03-27 01:42:00,27.1,21.6,-100.00,WNW,291,0.0,0.0,79,0.00,,,0.00,meteohub,2013-03-27 06:42:00,
2013-03-27 01:47:00,27.1,21.6,-100.00,WNW,291,0.0,0.0,79,0.00,,,0.00,meteohub,2013-03-27 06:47:00,
2013-03-27 01:52:00,27.1,21.6,-100.00,WNW,291,0.0,0.0,79,0.00,,,0.00,meteohub,2013-03-27 06:52:00,
2013-03-27 01:57:00,27.1,21.6,-100.00,WNW,291,0.0,0.0,79,0.00,,,0.00,meteohub,2013-03-27 06:57:00,
2013-03-27 02:02:00,27.1,21.6,-100.00,WNW,291,0.0,0.0,79,0.00,,,0.00,meteohub,2013-03-27 07:02:00,
2013-03-27 02:07:00,27.1,21.6,-100.00,WNW,291,0.0,0.0,79,0.00,,,0.00,meteohub,2013-03-27 07:07:00,
2013-03-27 02:12:00,27.0,21.4,-100.00,WNW,291,0.0,0.0,79,0.00,,,0.00,meteohub,2013-03-27 07:12:00,
2013-03-27 02:17:00,26.8,21.4,-100.00,WNW,291,0.0,0.0,80,0.00,,,0.00,meteohub,2013-03-27 07:17:00,
2013-03-27 02:22:00,26.4,21.0,-100.00,WNW,291,0.0,0.0,80,0.00,,,0.00,meteohub,2013-03-27 07:22:00,
2013-03-27 02:27:00,26.2,21.2,-100.00,WNW,291,0.0,0.0,81,0.00,,,0.00,meteohub,2013-03-27 07:27:00,
2013-03-27 02:32:00,25.9,20.5,-100.00,WNW,291,0.0,0.0,80,0.00,,,0.00,meteohub,2013-03-27 07:32:00,
2013-03-27 02:37:00,25.3,20.3,-100.00,WNW,291,0.0,0.0,81,0.00,,,0.00,meteohub,2013-03-27 07:37:00,
2013-03-27 02:51:00,25.2,20.1,-100.00,WNW,291,0.0,0.0,81,0.00,,,0.00,meteohub,2013-03-27 07:51:00,
2013-03-27 02:56:00,25.2,20.7,-100.00,WNW,291,0.0,0.0,83,0.00,,,0.00,meteohub,2013-03-27 07:56:00,
2013-03-27 03:01:00,25.2,20.7,-100.00,WNW,291,0.0,0.0,83,0.00,,,0.00,meteohub,2013-03-27 08:01:00,
2013-03-27 03:06:00,25.2,21.0,-100.00,WNW,291,0.0,0.0,84,0.00,,,0.00,meteohub,2013-03-27 08:06:00,
2013-03-27 03:11:00,25.3,21.2,-100.00,WNW,291,0.0,0.0,84,0.00,,,0.00,meteohub,2013-03-27 08:11:00,
2013-03-27 03:16:00,25.3,20.8,-100.00,WNW,291,0.0,0.0,83,0.00,,,0.00,meteohub,2013-03-27 08:16:00,
2013-03-27 03:21:00,25.2,20.7,-100.00,WNW,291,0.0,0.0,83,0.00,,,0.00,meteohub,2013-03-27 08:21:00,
2013-03-27 03:31:00,25.0,20.5,-100.00,WNW,291,0.0,0.0,83,0.00,,,0.00,meteohub,2013-03-27 08:31:00,
2013-03-27 03:36:00,24.8,20.7,-100.00,WNW,291,0.0,0.0,84,0.00,,,0.00,meteohub,2013-03-27 08:36:00,
2013-03-27 03:41:00,24.8,20.7,-100.00,WNW,291,0.0,0.0,84,0.00,,,0.00,meteohub,2013-03-27 08:41:00,
2013-03-27 03:46:00,24.8,21.0,-100.00,WNW,291,0.0,0.0,85,0.00,,,0.00,meteohub,2013-03-27 08:46:00,
2013-03-27 03:51:00,24.6,20.8,-100.00,WNW,291,0.0,0.0,85,0.00,,,0.00,meteohub,2013-03-27 08:51:00,
2013-03-27 03:56:00,24.6,20.8,-100.00,WNW,291,0.0,0.0,85,0.00,,,0.00,meteohub,2013-03-27 08:56:00,
2013-03-27 04:01:00,24.4,20.7,-100.00,WNW,291,0.0,0.0,85,0.00,,,0.00,meteohub,2013-03-27 09:01:00,
2013-03-27 04:09:00,24.3,20.5,-100.00,WNW,291,0.0,0.0,85,0.00,,,0.00,meteohub,2013-03-27 09:09:00,
2013-03-27 04:14:00,24.4,20.7,-100.00,WNW,291,0.0,0.0,85,0.00,,,0.00,meteohub,2013-03-27 09:14:00,
2013-03-27 04:21:00,24.4,20.7,-100.00,WNW,291,0.0,0.0,85,0.00,,,0.00,meteohub,2013-03-27 09:21:00,
2013-03-27 04:26:00,24.3,20.5,-100.00,WNW,291,0.0,0.0,85,0.00,,,0.00,meteohub,2013-03-27 09:26:00,
2013-03-27 04:31:00,23.9,20.1,-100.00,WNW,291,0.0,0.0,85,0.00,,,0.00,meteohub,2013-03-27 09:31:00,
2013-03-27 04:37:00,23.9,20.3,-100.00,WNW,291,0.0,0.0,86,0.00,,,0.00,meteohub,2013-03-27 09:37:00,
2013-03-27 04:42:00,24.3,20.7,-100.00,WNW,291,0.0,0.0,86,0.00,,,0.00,meteohub,2013-03-27 09:42:00,
2013-03-27 04:47:00,24.4,20.8,-100.00,WNW,291,0.0,0.0,86,0.00,,,0.00,meteohub,2013-03-27 09:47:00,
2013-03-27 04:51:00,24.6,21.0,-100.00,WNW,291,0.0,0.0,86,0.00,,,0.00,meteohub,2013-03-27 09:51:00,
2013-03-27 04:56:00,24.8,21.2,-100.00,WNW,291,0.0,0.0,86,0.00,,,0.00,meteohub,2013-03-27 09:56:00,
2013-03-27 05:02:00,25.0,21.4,-100.00,WNW,291,0.0,0.0,86,0.00,,,0.00,meteohub,2013-03-27 10:02:00,
2013-03-27 05:07:00,25.2,21.6,-100.00,WNW,291,0.0,0.0,86,0.00,,,0.00,meteohub,2013-03-27 10:07:00,
2013-03-27 05:11:00,26.1,22.5,-100.00,WNW,291,0.0,0.0,86,0.00,,,0.00,meteohub,2013-03-27 10:11:00,
2013-03-27 05:16:00,26.4,22.5,-100.00,WNW,291,0.0,0.0,85,0.00,,,0.00,meteohub,2013-03-27 10:16:00,
2013-03-27 05:21:00,26.6,22.6,-100.00,WNW,291,0.0,0.0,85,0.00,,,0.00,meteohub,2013-03-27 10:21:00,
2013-03-27 05:27:00,26.6,22.5,-100.00,WNW,291,0.0,0.0,84,0.00,,,0.00,meteohub,2013-03-27 10:27:00,
2013-03-27 05:32:00,26.6,22.5,-100.00,WNW,291,0.0,0.0,84,0.00,,,0.00,meteohub,2013-03-27 10:32:00,
2013-03-27 05:37:00,26.2,22.1,-100.00,WNW,291,0.0,0.0,84,0.00,,,0.00,meteohub,2013-03-27 10:37:00,
2013-03-27 05:42:00,26.2,22.1,-100.00,WNW,291,0.0,0.0,84,0.00,,,0.00,meteohub,2013-03-27 10:42:00,
2013-03-27 05:47:00,26.2,22.1,-100.00,WNW,291,0.0,0.0,84,0.00,,,0.00,meteohub,2013-03-27 10:47:00,
2013-03-27 05:52:00,26.2,21.7,-100.00,WNW,291,0.0,0.0,83,0.00,,,0.00,meteohub,2013-03-27 10:52:00,
2013-03-27 05:57:00,26.1,21.6,-100.00,WNW,291,0.0,0.0,83,0.00,,,0.00,meteohub,2013-03-27 10:57:00,
2013-03-27 06:02:00,25.7,21.2,-100.00,WNW,291,0.0,0.0,83,0.00,,,0.00,meteohub,2013-03-27 11:02:00,
2013-03-27 06:07:00,25.3,20.8,-100.00,WNW,291,0.0,0.0,83,0.00,,,0.00,meteohub,2013-03-27 11:07:00,
2013-03-27 06:12:00,25.2,20.7,-100.00,WNW,291,0.0,0.0,83,0.00,,,0.00,meteohub,2013-03-27 11:12:00,
2013-03-27 06:17:00,25.0,20.8,-100.00,WNW,291,0.0,0.0,84,0.00,,,0.00,meteohub,2013-03-27 11:17:00,
2013-03-27 06:22:00,25.0,20.8,-100.00,WNW,291,0.0,0.0,84,0.00,,,0.00,meteohub,2013-03-27 11:22:00,
2013-03-27 06:27:00,25.0,21.2,-100.00,WNW,291,0.0,0.0,85,0.00,,,0.00,meteohub,2013-03-27 11:27:00,
2013-03-27 06:32:00,25.0,21.2,-100.00,WNW,291,0.0,0.0,85,0.00,,,0.00,meteohub,2013-03-27 11:32:00,
2013-03-27 06:37:00,25.2,21.4,-100.00,WNW,291,0.0,0.0,85,0.00,,,0.00,meteohub,2013-03-27 11:37:00,
2013-03-27 06:42:00,25.2,21.4,-100.00,WNW,291,0.0,0.0,85,0.00,,,0.00,meteohub,2013-03-27 11:42:00,
2013-03-27 06:47:00,25.0,21.4,-100.00,WNW,291,0.0,0.0,86,0.00,,,0.00,meteohub,2013-03-27 11:47:00,
2013-03-27 06:52:00,25.2,21.6,-100.00,WNW,291,0.0,0.0,86,0.00,,,0.00,meteohub,2013-03-27 11:52:00,
2013-03-27 06:57:00,25.0,21.4,-100.00,WNW,291,0.0,0.0,86,0.00,,,0.00,meteohub,2013-03-27 11:57:00,
2013-03-27 07:02:00,25.0,21.4,-100.00,WNW,291,0.0,0.0,86,0.00,,,0.00,meteohub,2013-03-27 12:02:00,
2013-03-27 07:07:00,25.0,21.4,-100.00,WNW,291,0.0,0.0,86,0.00,,,0.00,meteohub,2013-03-27 12:07:00,
2013-03-27 07:12:00,25.0,21.2,-100.00,WNW,291,0.0,0.0,85,0.00,,,0.00,meteohub,2013-03-27 12:12:00,
2013-03-27 07:17:00,24.8,21.0,-100.00,WNW,291,0.0,0.0,85,0.00,,,0.00,meteohub,2013-03-27 12:17:00,
2013-03-27 07:22:00,24.6,20.8,-100.00,WNW,291,0.0,0.0,85,0.00,,,0.00,meteohub,2013-03-27 12:22:00,
2013-03-27 07:27:00,24.6,20.8,-100.00,WNW,291,0.0,0.0,85,0.00,,,0.00,meteohub,2013-03-27 12:27:00,
2013-03-27 07:32:00,24.6,20.8,-100.00,WNW,291,0.0,0.0,85,0.00,,,0.00,meteohub,2013-03-27 12:32:00,
2013-03-27 07:37:00,25.2,21.6,-100.00,WNW,291,0.0,0.0,86,0.00,,,0.00,meteohub,2013-03-27 12:37:00,
2013-03-27 07:42:00,25.9,22.3,-100.00,WNW,291,0.0,0.0,86,0.00,,,0.00,meteohub,2013-03-27 12:42:00,
2013-03-27 07:47:00,27.0,23.4,-100.00,WNW,291,0.0,0.0,86,0.00,,,0.00,meteohub,2013-03-27 12:47:00,
2013-03-27 07:52:00,28.8,24.8,-100.00,WNW,291,0.0,0.0,85,0.00,,,0.00,meteohub,2013-03-27 12:52:00,
2013-03-27 07:57:00,29.7,24.6,-100.00,WNW,291,0.0,0.0,81,0.00,,,0.00,meteohub,2013-03-27 12:57:00,
2013-03-27 08:02:00,30.4,24.6,-100.00,WNW,291,0.0,0.0,79,0.00,,,0.00,meteohub,2013-03-27 13:02:00,
2013-03-27 08:07:00,30.7,24.6,-100.00,WNW,291,0.0,0.0,78,0.00,,,0.00,meteohub,2013-03-27 13:07:00,
2013-03-27 08:12:00,31.6,25.3,-100.00,WNW,291,0.0,0.0,77,0.00,,,0.00,meteohub,2013-03-27 13:12:00,
2013-03-27 08:17:00,32.5,25.9,-100.00,WNW,291,0.0,0.0,76,0.00,,,0.00,meteohub,2013-03-27 13:17:00,
2013-03-27 08:22:00,34.2,27.1,-100.00,WNW,291,0.0,0.0,75,0.00,,,0.00,meteohub,2013-03-27 13:22:00,
2013-03-27 08:27:00,35.1,27.3,-100.00,WNW,291,0.0,0.0,73,0.00,,,0.00,meteohub,2013-03-27 13:27:00,
2013-03-27 08:32:00,36.1,27.7,-100.00,WNW,291,0.0,0.0,71,0.00,,,0.00,meteohub,2013-03-27 13:32:00,
2013-03-27 08:37:00,36.7,27.5,-100.00,WNW,291,0.0,0.0,69,0.00,,,0.00,meteohub,2013-03-27 13:37:00,
2013-03-27 08:42:00,37.4,27.9,-100.00,WNW,290,0.0,0.0,68,0.00,,,0.00,meteohub,2013-03-27 13:42:00,
2013-03-27 08:47:00,37.9,28.0,-100.00,WNW,291,0.0,0.0,67,0.00,,,0.00,meteohub,2013-03-27 13:47:00,
2013-03-27 08:52:00,38.8,28.8,-100.00,WNW,291,0.0,0.0,67,0.00,,,0.00,meteohub,2013-03-27 13:52:00,
2013-03-27 08:57:00,38.8,28.0,-100.00,WNW,291,0.0,0.0,65,0.00,,,0.00,meteohub,2013-03-27 13:57:00,
2013-03-27 09:02:00,38.5,28.0,-100.00,WNW,290,0.0,0.0,66,0.00,,,0.00,meteohub,2013-03-27 14:02:00,
2013-03-27 09:07:00,38.7,28.6,-100.00,WNW,291,0.0,0.0,67,0.00,,,0.00,meteohub,2013-03-27 14:07:00,
2013-03-27 09:12:00,39.0,28.6,-100.00,WNW,291,0.0,0.0,66,0.00,,,0.00,meteohub,2013-03-27 14:12:00,
2013-03-27 09:17:00,39.7,28.2,-100.00,WNW,291,0.0,0.0,63,0.00,,,0.00,meteohub,2013-03-27 14:17:00,
2013-03-27 09:23:00,40.6,27.9,-100.00,WNW,290,0.0,0.0,60,0.00,,,0.00,meteohub,2013-03-27 14:23:00,
2013-03-27 09:28:00,41.2,28.4,-100.00,WNW,290,0.0,0.0,60,0.00,,,0.00,meteohub,2013-03-27 14:28:00,
2013-03-27 09:33:00,41.5,28.2,-100.00,WNW,290,0.0,0.0,59,0.00,,,0.00,meteohub,2013-03-27 14:33:00,
2013-03-27 09:38:00,42.1,28.4,-100.00,WNW,290,0.0,1.0,58,0.00,,,0.00,meteohub,2013-03-27 14:38:00,
2013-03-27 09:42:00,42.3,27.7,-100.00,WNW,290,0.0,1.0,56,0.00,,,0.00,meteohub,2013-03-27 14:42:00,
2013-03-27 09:48:00,42.3,26.8,-100.00,WNW,290,0.0,1.0,54,0.00,,,0.00,meteohub,2013-03-27 14:48:00,
2013-03-27 09:53:00,42.4,27.5,-100.00,WNW,290,0.0,1.0,55,0.00,,,0.00,meteohub,2013-03-27 14:53:00,
2013-03-27 09:58:00,43.2,27.1,-100.00,WNW,289,0.0,1.0,53,0.00,,,0.00,meteohub,2013-03-27 14:58:00,
2013-03-27 10:03:00,43.0,27.0,-100.00,West,276,0.0,0.0,53,0.00,,,0.00,meteohub,2013-03-27 15:03:00,
2013-03-27 10:08:00,42.4,26.6,-100.00,West,273,2.0,3.0,53,0.00,,,0.00,meteohub,2013-03-27 15:08:00,
2013-03-27 10:13:00,42.4,27.0,-100.00,West,263,1.0,3.0,54,0.00,,,0.00,meteohub,2013-03-27 15:13:00,
2013-03-27 10:18:00,43.5,28.4,-100.00,WSW,250,0.0,5.0,55,0.00,,,0.00,meteohub,2013-03-27 15:18:00,
2013-03-27 10:23:00,44.2,28.2,-100.00,SW,236,0.0,5.0,53,0.00,,,0.00,meteohub,2013-03-27 15:23:00,
2013-03-27 10:28:00,43.9,27.9,-100.00,SW,221,2.0,4.0,53,0.00,,,0.00,meteohub,2013-03-27 15:28:00,
2013-03-27 10:33:00,43.2,27.1,-100.00,SW,221,3.0,6.0,53,0.00,,,0.00,meteohub,2013-03-27 15:33:00,
2013-03-27 10:38:00,42.4,26.6,-100.00,SW,218,4.0,6.0,53,0.00,,,0.00,meteohub,2013-03-27 15:38:00,
2013-03-27 10:43:00,42.4,27.0,-100.00,SW,218,1.0,6.0,54,0.00,,,0.00,meteohub,2013-03-27 15:43:00,
2013-03-27 10:48:00,43.3,27.0,-100.00,SW,218,3.0,6.0,52,0.00,,,0.00,meteohub,2013-03-27 15:48:00,
2013-03-27 10:53:00,44.1,27.1,-100.00,SW,218,2.0,6.0,51,0.00,,,0.00,meteohub,2013-03-27 15:53:00,
2013-03-27 10:58:00,43.5,26.1,-100.00,SW,218,0.0,5.0,50,0.00,,,0.00,meteohub,2013-03-27 15:58:00,
2013-03-27 11:03:00,44.1,26.6,-100.00,SW,218,0.0,5.0,50,0.00,,,0.00,meteohub,2013-03-27 16:03:00,
2013-03-27 11:08:00,44.2,25.7,-100.00,SW,218,0.0,4.0,48,0.00,,,0.00,meteohub,2013-03-27 16:08:00,
2013-03-27 11:13:00,45.0,27.0,-100.00,SW,218,0.0,1.0,49,0.00,,,0.00,meteohub,2013-03-27 16:13:00,
2013-03-27 11:18:00,45.1,26.6,-100.00,SSW,206,0.0,0.0,48,0.00,,,0.00,meteohub,2013-03-27 16:18:00,
2013-03-27 11:23:00,44.8,25.7,-100.00,SSW,205,0.0,2.0,47,0.00,,,0.00,meteohub,2013-03-27 16:23:00,
2013-03-27 11:28:00,44.2,26.2,-100.00,SSW,205,0.0,2.0,49,0.00,,,0.00,meteohub,2013-03-27 16:28:00,
2013-03-27 11:33:00,43.9,25.5,-100.00,SSW,196,0.0,2.0,48,0.00,,,0.00,meteohub,2013-03-27 16:33:00,
2013-03-27 11:38:00,43.7,25.7,-100.00,SSW,197,0.0,2.0,49,0.00,,,0.00,meteohub,2013-03-27 16:38:00,
2013-03-27 11:43:00,45.0,26.4,-100.00,SSW,197,1.0,4.0,48,0.00,,,0.00,meteohub,2013-03-27 16:43:00,
2013-03-27 11:48:00,44.8,25.3,-100.00,ESE,123,0.0,5.0,46,0.00,,,0.00,meteohub,2013-03-27 16:48:00,
2013-03-27 11:53:00,44.2,25.7,-100.00,South,188,2.0,6.0,48,0.00,,,0.00,meteohub,2013-03-27 16:53:00,
2013-03-27 11:58:00,43.5,26.1,-100.00,South,190,4.0,6.0,50,0.00,,,0.00,meteohub,2013-03-27 16:58:00,
2013-03-27 12:03:00,43.0,25.7,-100.00,SW,215,0.0,6.0,50,0.00,,,0.00,meteohub,2013-03-27 17:03:00,
2013-03-27 12:08:00,43.3,26.4,-100.00,SW,218,4.0,6.0,51,0.00,,,0.00,meteohub,2013-03-27 17:08:00,
2013-03-27 12:13:00,43.5,26.1,-100.00,SW,215,0.0,7.0,50,0.00,,,0.00,meteohub,2013-03-27 17:13:00,
2013-03-27 12:18:00,43.5,26.1,-100.00,SSW,207,2.0,7.0,50,0.00,,,0.00,meteohub,2013-03-27 17:18:00,
2013-03-27 12:23:00,43.3,25.9,-100.00,SSE,165,1.0,7.0,50,0.00,,,0.00,meteohub,2013-03-27 17:23:00,
2013-03-27 12:28:00,43.3,27.0,-100.00,SSE,163,0.0,7.0,52,0.00,,,0.00,meteohub,2013-03-27 17:28:00,
2013-03-27 12:33:00,43.3,27.0,-100.00,South,169,0.0,6.0,52,0.00,,,0.00,meteohub,2013-03-27 17:33:00,
2013-03-27 12:38:00,43.9,26.4,-100.00,SSE,168,0.0,6.0,50,0.00,,,0.00,meteohub,2013-03-27 17:38:00,
2013-03-27 12:43:00,43.5,26.6,-100.00,SSE,148,0.0,6.0,51,0.00,,,0.00,meteohub,2013-03-27 17:43:00,
2013-03-27 12:48:00,44.1,27.1,-100.00,SW,219,0.0,3.0,51,0.00,,,0.00,meteohub,2013-03-27 17:48:00,
2013-03-27 12:53:00,44.4,27.5,-100.00,SSW,200,0.0,5.0,51,0.00,,,0.00,meteohub,2013-03-27 17:53:00,
2013-03-27 12:58:00,44.2,26.8,-100.00,ESE,121,0.0,5.0,50,0.00,,,0.00,meteohub,2013-03-27 17:58:00,
2013-03-27 13:03:00,43.5,26.1,-100.00,East,94,0.0,5.0,50,0.00,,,0.00,meteohub,2013-03-27 18:03:00,
2013-03-27 13:08:00,43.5,26.6,-100.00,South,190,0.0,6.0,51,0.00,,,0.00,meteohub,2013-03-27 18:08:00,
2013-03-27 13:13:00,43.9,27.0,-100.00,SSW,195,0.0,6.0,51,0.00,,,0.00,meteohub,2013-03-27 18:13:00,
2013-03-27 13:18:00,44.8,27.7,-100.00,SSW,192,0.0,6.0,51,0.00,,,0.00,meteohub,2013-03-27 18:18:00,
2013-03-27 13:23:00,44.2,27.3,-100.00,South,173,0.0,6.0,51,0.00,,,0.00,meteohub,2013-03-27 18:23:00,
2013-03-27 13:28:00,44.2,27.7,-100.00,South,178,0.0,4.0,52,0.00,,,0.00,meteohub,2013-03-27 18:28:00,
2013-03-27 13:33:00,44.1,27.1,-100.00,SE,142,0.0,5.0,51,0.00,,,0.00,meteohub,2013-03-27 18:33:00,
2013-03-27 13:38:00,44.1,27.1,-100.00,SE,142,0.0,5.0,51,0.00,,,0.00,meteohub,2013-03-27 18:38:00,
2013-03-27 13:43:00,44.2,27.3,-100.00,South,179,0.0,5.0,51,0.00,,,0.00,meteohub,2013-03-27 18:43:00,
2013-03-27 13:48:00,44.8,27.7,-100.00,South,172,0.0,5.0,51,0.00,,,0.00,meteohub,2013-03-27 18:48:00,
2013-03-27 13:53:00,45.0,27.5,-100.00,East,99,0.0,5.0,50,0.00,,,0.00,meteohub,2013-03-27 18:53:00,
2013-03-27 13:58:00,45.0,27.5,-100.00,SSE,148,2.0,5.0,50,0.00,,,0.00,meteohub,2013-03-27 18:58:00,
2013-03-27 14:03:00,44.4,27.5,-100.00,SE,146,0.0,5.0,51,0.00,,,0.00,meteohub,2013-03-27 19:03:00,
2013-03-27 14:08:00,45.0,27.9,-100.00,SE,146,0.0,5.0,51,0.00,,,0.00,meteohub,2013-03-27 19:08:00,
2013-03-27 14:13:00,45.0,27.5,-100.00,SSE,168,0.0,5.0,50,0.00,,,0.00,meteohub,2013-03-27 19:13:00,
2013-03-27 14:18:00,45.3,28.8,-100.00,SSE,168,0.0,4.0,52,0.00,,,0.00,meteohub,2013-03-27 19:18:00,
2013-03-27 14:23:00,45.1,28.0,-100.00,South,182,2.0,4.0,51,0.00,,,0.00,meteohub,2013-03-27 19:23:00,
2013-03-27 14:28:00,45.7,28.6,-100.00,SW,221,3.0,5.0,51,0.00,,,0.00,meteohub,2013-03-27 19:28:00,
2013-03-27 14:33:00,45.9,28.2,-100.00,SW,222,0.0,5.0,50,0.00,,,0.00,meteohub,2013-03-27 19:33:00,
2013-03-27 14:38:00,46.2,28.0,-100.00,ESE,113,0.0,5.0,49,0.00,,,0.00,meteohub,2013-03-27 19:38:00,
2013-03-27 14:43:00,46.0,27.9,-100.00,ESE,113,0.0,4.0,49,0.00,,,0.00,meteohub,2013-03-27 19:43:00,
2013-03-27 14:48:00,45.5,28.4,-100.00,South,169,0.0,4.0,51,0.00,,,0.00,meteohub,2013-03-27 19:48:00,
2013-03-27 14:53:00,45.7,28.6,-100.00,South,169,0.0,4.0,51,0.00,,,0.00,meteohub,2013-03-27 19:53:00,
2013-03-27 14:58:00,45.3,28.2,-100.00,South,169,0.0,4.0,51,0.00,,,0.00,meteohub,2013-03-27 19:58:00,
2013-03-27 15:03:00,45.7,28.0,-100.00,SSW,194,0.0,4.0,50,0.00,,,0.00,meteohub,2013-03-27 20:03:00,
2013-03-27 15:08:00,45.9,28.8,-100.00,SSW,194,2.0,5.0,51,0.00,,,0.00,meteohub,2013-03-27 20:08:00,
2013-03-27 15:18:00,45.0,28.9,-100.00,SSW,203,2.0,6.0,53,0.00,,,0.00,meteohub,2013-03-27 20:18:00,
2013-03-27 15:23:00,45.7,29.1,-100.00,SSW,204,0.0,6.0,52,0.00,,,0.00,meteohub,2013-03-27 20:23:00,
2013-03-27 15:28:00,45.7,29.5,-100.00,South,188,2.0,6.0,53,0.00,,,0.00,meteohub,2013-03-27 20:28:00,
2013-03-27 15:33:00,45.5,29.3,-100.00,South,188,0.0,5.0,53,0.00,,,0.00,meteohub,2013-03-27 20:33:00,
2013-03-27 15:38:00,46.0,29.8,-100.00,SSW,207,2.0,5.0,53,0.00,,,0.00,meteohub,2013-03-27 20:38:00,
2013-03-27 15:43:00,46.0,29.5,-100.00,SSW,202,5.0,6.0,52,0.00,,,0.00,meteohub,2013-03-27 20:43:00,
2013-03-27 15:48:00,45.3,29.1,-100.00,SSW,207,3.0,6.0,53,0.00,,,0.00,meteohub,2013-03-27 20:48:00,
2013-03-27 15:53:00,45.0,29.3,-100.00,SSE,160,1.0,7.0,54,0.00,,,0.00,meteohub,2013-03-27 20:53:00,
2013-03-27 15:58:00,45.0,28.9,-100.00,SSW,194,1.0,7.0,53,0.00,,,0.00,meteohub,2013-03-27 20:58:00,
2013-03-27 16:03:00,44.4,27.9,-100.00,ESE,108,0.0,7.0,52,0.00,,,0.00,meteohub,2013-03-27 21:03:00,
2013-03-27 16:08:00,44.4,28.4,-100.00,SE,126,0.0,6.0,53,0.00,,,0.00,meteohub,2013-03-27 21:08:00,
2013-03-27 16:13:00,44.8,29.1,-100.00,SSE,148,0.0,6.0,54,0.00,,,0.00,meteohub,2013-03-27 21:13:00,
2013-03-27 16:18:00,45.0,28.9,-100.00,SSE,149,0.0,5.0,53,0.00,,,0.00,meteohub,2013-03-27 21:18:00,
2013-03-27 16:23:00,45.7,29.1,-100.00,SSE,151,0.0,4.0,52,0.00,,,0.00,meteohub,2013-03-27 21:23:00,
2013-03-27 16:28:00,45.5,29.3,-100.00,SE,145,0.0,3.0,53,0.00,,,0.00,meteohub,2013-03-27 21:28:00,
2013-03-27 16:33:00,45.1,28.9,-100.00,ESE,110,0.0,3.0,53,0.00,,,0.00,meteohub,2013-03-27 21:33:00,
2013-03-27 16:38:00,44.4,28.4,-100.00,ESE,117,0.0,5.0,53,0.00,,,0.00,meteohub,2013-03-27 21:38:00,
2013-03-27 16:43:00,44.2,28.2,-100.00,ESE,119,0.0,5.0,53,0.00,,,0.00,meteohub,2013-03-27 21:43:00,
2013-03-27 16:48:00,43.9,27.9,-100.00,ESE,119,0.0,5.0,53,0.00,,,0.00,meteohub,2013-03-27 21:48:00,
2013-03-27 16:53:00,43.7,28.6,-100.00,ESE,118,0.0,3.0,55,0.00,,,0.00,meteohub,2013-03-27 21:53:00,
2013-03-27 16:58:00,44.1,28.9,-100.00,ESE,105,6.0,6.0,55,0.00,,,0.00,meteohub,2013-03-27 21:58:00,
2013-03-27 17:03:00,44.1,28.4,-100.00,ESE,102,1.0,6.0,54,0.00,,,0.00,meteohub,2013-03-27 22:03:00,
2013-03-27 17:08:00,43.9,28.4,-100.00,ESE,103,0.0,6.0,54,0.00,,,0.00,meteohub,2013-03-27 22:08:00,
2013-03-27 17:13:00,43.9,28.4,-100.00,ESE,107,0.0,6.0,54,0.00,,,0.00,meteohub,2013-03-27 22:13:00,
2013-03-27 17:18:00,43.5,27.5,-100.00,East,93,0.0,3.0,53,0.00,,,0.00,meteohub,2013-03-27 22:18:00,
2013-03-27 17:23:00,43.5,28.9,-100.00,East,93,0.0,4.0,56,0.00,,,0.00,meteohub,2013-03-27 22:23:00,
2013-03-27 17:28:00,43.3,27.3,-100.00,East,94,0.0,4.0,53,0.00,,,0.00,meteohub,2013-03-27 22:28:00,
2013-03-27 17:33:00,43.3,27.9,-100.00,East,94,0.0,4.0,54,0.00,,,0.00,meteohub,2013-03-27 22:33:00,
2013-03-27 17:38:00,43.5,28.0,-100.00,East,94,0.0,4.0,54,0.00,,,0.00,meteohub,2013-03-27 22:38:00,
2013-03-27 17:43:00,43.2,28.0,-100.00,East,95,1.0,3.0,55,0.00,,,0.00,meteohub,2013-03-27 22:43:00,
2013-03-27 17:48:00,43.2,28.6,-100.00,East,96,0.0,5.0,56,0.00,,,0.00,meteohub,2013-03-27 22:48:00,
2013-03-27 17:53:00,43.3,28.2,-100.00,East,96,0.0,5.0,55,0.00,,,0.00,meteohub,2013-03-27 22:53:00,
2013-03-27 17:58:00,43.2,27.7,-100.00,East,98,4.0,5.0,54,0.00,,,0.00,meteohub,2013-03-27 22:58:00,
2013-03-27 18:03:00,42.8,27.7,-100.00,East,99,0.0,4.0,55,0.00,,,0.00,meteohub,2013-03-27 23:03:00,
2013-03-27 18:08:00,42.6,27.5,-100.00,East,101,0.0,4.0,55,0.00,,,0.00,meteohub,2013-03-27 23:08:00,
2013-03-27 18:13:00,42.6,27.5,-100.00,ESE,103,1.0,4.0,55,0.00,,,0.00,meteohub,2013-03-27 23:13:00,
2013-03-27 18:18:00,42.6,27.5,-100.00,ESE,110,0.0,4.0,55,0.00,,,0.00,meteohub,2013-03-27 23:18:00,
2013-03-27 18:23:00,42.6,27.1,-100.00,ESE,111,0.0,4.0,54,0.00,,,0.00,meteohub,2013-03-27 23:23:00,
2013-03-27 18:28:00,42.4,27.9,-100.00,ESE,111,0.0,4.0,56,0.00,,,0.00,meteohub,2013-03-27 23:28:00,
2013-03-27 18:33:00,42.4,27.9,-100.00,SE,124,0.0,2.0,56,0.00,,,0.00,meteohub,2013-03-27 23:33:00,
2013-03-27 18:38:00,42.4,27.9,-100.00,SE,124,0.0,2.0,56,0.00,,,0.00,meteohub,2013-03-27 23:38:00,
2013-03-27 18:43:00,42.3,27.7,-100.00,SE,124,0.0,2.0,56,0.00,,,0.00,meteohub,2013-03-27 23:43:00,
2013-03-27 18:48:00,42.1,27.9,-100.00,ESE,123,0.0,1.0,57,0.00,,,0.00,meteohub,2013-03-27 23:48:00,
2013-03-27 18:53:00,41.9,27.9,-100.00,ESE,123,0.0,1.0,57,0.00,,,0.00,meteohub,2013-03-27 23:53:00,
2013-03-27 18:58:00,41.7,28.0,-100.00,SE,124,0.0,1.0,58,0.00,,,0.00,meteohub,2013-03-27 23:58:00,
2013-03-27 19:06:00,41.4,27.7,-100.00,SE,124,0.0,0.0,58,0.00,,,0.00,meteohub,2013-03-28 00:06:00,
2013-03-27 19:11:00,41.0,27.9,-100.00,ESE,123,0.0,0.0,59,0.00,,,0.00,meteohub,2013-03-28 00:11:00,
2013-03-27 19:16:00,40.5,27.7,-100.00,SE,124,0.0,0.0,60,0.00,,,0.00,meteohub,2013-03-28 00:16:00,
2013-03-27 19:21:00,40.3,27.5,-100.00,SE,124,0.0,0.0,60,0.00,,,0.00,meteohub,2013-03-28 00:21:00,
2013-03-27 19:26:00,39.9,27.5,-100.00,ESE,123,0.0,0.0,61,0.00,,,0.00,meteohub,2013-03-28 00:26:00,
2013-03-27 19:31:00,39.7,27.3,-100.00,SE,124,0.0,0.0,61,0.00,,,0.00,meteohub,2013-03-28 00:31:00,
2013-03-27 19:36:00,39.6,27.1,-100.00,SE,124,0.0,0.0,61,0.00,,,0.00,meteohub,2013-03-28 00:36:00,
2013-03-27 19:41:00,39.4,27.1,-100.00,ESE,123,0.0,0.0,61,0.00,,,0.00,meteohub,2013-03-28 00:41:00,
2013-03-27 19:46:00,39.4,27.1,-100.00,SE,124,0.0,0.0,61,0.00,,,0.00,meteohub,2013-03-28 00:46:00,
2013-03-27 19:51:00,39.2,27.3,-100.00,SE,124,0.0,0.0,62,0.00,,,0.00,meteohub,2013-03-28 00:51:00,
2013-03-27 19:56:00,38.8,27.0,-100.00,ESE,123,0.0,0.0,62,0.00,,,0.00,meteohub,2013-03-28 00:56:00,
2013-03-27 20:01:00,38.8,27.3,-100.00,ESE,123,0.0,0.0,63,0.00,,,0.00,meteohub,2013-03-28 01:01:00,
2013-03-27 20:06:00,38.7,27.1,-100.00,ESE,123,0.0,0.0,63,0.00,,,0.00,meteohub,2013-03-28 01:06:00,
2013-03-27 20:11:00,38.5,27.0,-100.00,ESE,123,0.0,0.0,63,0.00,,,0.00,meteohub,2013-03-28 01:11:00,
2013-03-27 20:16:00,38.5,27.3,-100.00,ESE,122,0.0,2.0,64,0.00,,,0.00,meteohub,2013-03-28 01:16:00,
2013-03-27 20:21:00,38.3,27.1,-100.00,ESE,122,0.0,2.0,64,0.00,,,0.00,meteohub,2013-03-28 01:21:00,
2013-03-27 20:26:00,38.1,26.6,-100.00,ESE,122,0.0,2.0,63,0.00,,,0.00,meteohub,2013-03-28 01:26:00,
2013-03-27 20:31:00,37.9,26.8,-100.00,ESE,122,0.0,0.0,64,0.00,,,0.00,meteohub,2013-03-28 01:31:00,
2013-03-27 20:36:00,37.8,26.6,-100.00,ESE,122,0.0,0.0,64,0.00,,,0.00,meteohub,2013-03-28 01:36:00,
2013-03-27 20:41:00,37.4,26.8,-100.00,ESE,122,0.0,0.0,65,0.00,,,0.00,meteohub,2013-03-28 01:41:00,
2013-03-27 20:46:00,37.2,26.6,-100.00,ESE,122,0.0,0.0,65,0.00,,,0.00,meteohub,2013-03-28 01:46:00,
2013-03-27 20:51:00,37.2,26.6,-100.00,ESE,122,0.0,0.0,65,0.00,,,0.00,meteohub,2013-03-28 01:51:00,
2013-03-27 20:57:00,37.0,26.8,-100.00,ESE,122,0.0,0.0,66,0.00,,,0.00,meteohub,2013-03-28 01:57:00,
2013-03-27 21:02:00,37.0,26.8,-100.00,ESE,122,0.0,0.0,66,0.00,,,0.00,meteohub,2013-03-28 02:02:00,
2013-03-27 21:07:00,37.2,26.6,-100.00,ESE,122,0.0,0.0,65,0.00,,,0.00,meteohub,2013-03-28 02:07:00,
2013-03-27 21:12:00,37.2,26.6,-100.00,ESE,122,0.0,0.0,65,0.00,,,0.00,meteohub,2013-03-28 02:12:00,
2013-03-27 21:17:00,37.2,26.2,-100.00,ESE,122,0.0,0.0,64,0.00,,,0.00,meteohub,2013-03-28 02:17:00,
2013-03-27 21:22:00,37.2,26.2,-100.00,ESE,122,0.0,0.0,64,0.00,,,0.00,meteohub,2013-03-28 02:22:00,
2013-03-27 21:27:00,37.0,26.1,-100.00,ESE,122,0.0,0.0,64,0.00,,,0.00,meteohub,2013-03-28 02:27:00,
2013-03-27 21:32:00,37.0,26.1,-100.00,ESE,121,0.0,1.0,64,0.00,,,0.00,meteohub,2013-03-28 02:32:00,
2013-03-27 21:37:00,36.9,26.2,-100.00,ESE,121,0.0,1.0,65,0.00,,,0.00,meteohub,2013-03-28 02:37:00,
2013-03-27 21:42:00,36.7,26.1,-100.00,ESE,121,0.0,0.0,65,0.00,,,0.00,meteohub,2013-03-28 02:42:00,
2013-03-27 21:47:00,36.7,26.1,-100.00,ESE,119,0.0,1.0,65,0.00,,,0.00,meteohub,2013-03-28 02:47:00,
2013-03-27 21:53:00,36.5,25.9,-100.00,ESE,119,0.0,1.0,65,0.00,,,0.00,meteohub,2013-03-28 02:53:00,
2013-03-27 21:58:00,36.3,25.7,-100.00,ESE,119,0.0,1.0,65,0.00,,,0.00,meteohub,2013-03-28 02:58:00,
2013-03-27 22:03:00,36.3,25.7,-100.00,ESE,113,0.0,1.0,65,0.00,,,0.00,meteohub,2013-03-28 03:03:00,
2013-03-27 22:08:00,36.3,26.1,-100.00,ESE,113,0.0,1.0,66,0.00,,,0.00,meteohub,2013-03-28 03:08:00,
2013-03-27 22:13:00,36.1,25.5,-100.00,ESE,113,0.0,1.0,65,0.00,,,0.00,meteohub,2013-03-28 03:13:00,
2013-03-27 22:18:00,36.1,25.9,-100.00,ESE,113,0.0,1.0,66,0.00,,,0.00,meteohub,2013-03-28 03:18:00,
2013-03-27 22:23:00,36.1,25.9,-100.00,ESE,113,0.0,1.0,66,0.00,,,0.00,meteohub,2013-03-28 03:23:00,
2013-03-27 22:28:00,36.1,26.2,-100.00,ESE,113,0.0,1.0,67,0.00,,,0.00,meteohub,2013-03-28 03:28:00,
2013-03-27 22:33:00,36.0,26.1,-100.00,ESE,113,0.0,0.0,67,0.00,,,0.00,meteohub,2013-03-28 03:33:00,
2013-03-27 22:38:00,35.8,25.9,-100.00,ESE,113,0.0,0.0,67,0.00,,,0.00,meteohub,2013-03-28 03:38:00,
2013-03-27 22:43:00,35.8,25.9,-100.00,ESE,113,0.0,1.0,67,0.00,,,0.00,meteohub,2013-03-28 03:43:00,
2013-03-27 22:48:00,36.0,25.7,-100.00,ESE,107,0.0,2.0,66,0.00,,,0.00,meteohub,2013-03-28 03:48:00,
2013-03-27 22:53:00,36.0,25.7,-100.00,ESE,107,0.0,5.0,66,0.00,,,0.00,meteohub,2013-03-28 03:53:00,
2013-03-27 22:58:00,36.0,25.7,-100.00,ESE,103,0.0,5.0,66,0.00,,,0.00,meteohub,2013-03-28 03:58:00,
2013-03-27 23:00:00,36.0,25.7,-100.00,East,101,0.0,5.0,66,0.00,,,0.00,meteohub,2013-03-28 04:00:00,
2013-03-27 23:05:00,36.0,25.7,-100.00,East,101,0.0,5.0,66,0.00,,,0.00,meteohub,2013-03-28 04:05:00,
2013-03-27 23:06:00,36.0,25.7,-100.00,East,101,0.0,4.0,66,0.00,,,0.00,meteohub,2013-03-28 04:06:00,
2013-03-27 23:11:00,35.8,25.5,-100.00,East,99,0.0,4.0,66,0.00,,,0.00,meteohub,2013-03-28 04:11:00,
2013-03-27 23:16:00,35.6,25.3,-100.00,East,100,0.0,2.0,66,0.00,,,0.00,meteohub,2013-03-28 04:16:00,
2013-03-27 23:21:00,35.6,25.7,-100.00,East,100,0.0,2.0,67,0.00,,,0.00,meteohub,2013-03-28 04:21:00,
2013-03-27 23:26:00,35.4,25.5,-100.00,East,100,0.0,1.0,67,0.00,,,0.00,meteohub,2013-03-28 04:26:00,
2013-03-27 23:31:00,35.4,25.5,-100.00,East,100,0.0,1.0,67,0.00,,,0.00,meteohub,2013-03-28 04:31:00,
2013-03-27 23:36:00,35.2,25.3,-100.00,East,100,0.0,1.0,67,0.00,,,0.00,meteohub,2013-03-28 04:36:00,
2013-03-27 23:41:00,35.1,25.5,-100.00,East,99,0.0,1.0,68,0.00,,,0.00,meteohub,2013-03-28 04:41:00,
2013-03-27 23:46:00,35.2,25.7,-100.00,East,99,0.0,1.0,68,0.00,,,0.00,meteohub,2013-03-28 04:46:00,
2013-03-27 23:51:00,35.2,25.3,-100.00,East,100,0.0,1.0,67,0.00,,,0.00,meteohub,2013-03-28 04:51:00,
2013-03-27 23:56:00,35.1,25.2,-100.00,East,100,0.0,1.0,67,0.00,,,0.00,meteohub,2013-03-28 04:56:00,